Location: Partizánske
(48.6285°N, 18.3769°E)
Time: 01:27:18
(UTC+02:00)

Vanguard 2 - Visible Passes

Search period start: 25 June 2022 00:00
Search period end: 05 July 2022 00:00
Orbit: 552 x 2934 km, 32.9° (Epoch: 24 June)

Date Brightness Start Highest point End Pass type
(mag) Time Alt. Az. Time Alt. Az. Time Alt. Az.
29 Jun 9.1 21:46:38 10° SW 21:49:28 14° S 21:51:54 10° SSE visible
30 Jun 9.1 22:03:38 10° SW 22:06:24 14° SSW 22:08:30 11° SSE visible
01 Jul 9.2 22:20:57 10° SW 22:23:17 13° SSW 22:24:51 11° S visible
02 Jul 9.4 22:38:49 10° SW 22:40:07 11° SSW 22:41:09 10° S visible
